Change the Weather History Date:

Tuesday, September 25, 2012

  Actual Average Record
Temperature  
Mean Temperature 81 °F -  
Max Temperature 84 °F 83 °F 93 °F (2006)
Min Temperature 78 °F 71 °F 61 °F (2008)
Cooling Degree Days 16    
Growing Degree Days 31 (Base 50)    
Moisture  
Dew Point 67 °F    
Average Humidity 64    
Maximum Humidity 69    
Minimum Humidity 58    
Precipitation  
Precipitation 0.00 in - - ()
Sea Level Pressure  
Sea Level Pressure 30.11 in    
Wind  
Wind Speed 12 mph (NE)    
Max Wind Speed 21 mph    
Max Gust Speed 25 mph    
Visibility 10 miles    
Events      
Averages and records for this station are not official NWS values.
T = Trace of Precipitation, MM = Missing Value Source: NWS Daily Summary

Daily Weather History Graph

Daily Weather History Graph

Search for Another Location

Airport or City:

Trip Planner

Search our weather history database for the weather conditions in past years. The results will help you decide how hot, cold, wet, or windy it might be!

Date:

Astronomy

Sep. 25, 2012 Rise Set
Actual Time 7:16 AM EDT 7:18 PM EDT
Civil Twilight 6:53 AM EDT 7:42 PM EDT
Nautical Twilight 6:25 AM EDT 8:10 PM EDT
Astronomical Twilight 5:57 AM EDT 8:38 PM EDT
Moon 4:28 PM EDT (9/25) 2:54 AM EDT (9/25)
Length of Visible Light 12h 49m
Length of Day
12h 01m
Waxing Gibbous, 80% of the Moon is Illuminated
Sep 25
Waxing Gibbous
Sep 29
Full
Oct 8
Last Quarter
Oct 15
New
Oct 21
First Quarter

Hourly Weather History & Observations

Time (EDT) Temp. Heat Index Dew Point Humidity Pressure Visibility Wind Dir Wind Speed Gust Speed Precip Events Conditions
12:53 AM 79.0 °F - 66.9 °F 66% 30.10 in 10.0 mi NE 6.9 mph - N/A   Mostly Cloudy
1:53 AM 79.0 °F - 66.9 °F 66% 30.09 in 10.0 mi NNE 9.2 mph - N/A   Mostly Cloudy
2:53 AM 79.0 °F - 66.9 °F 66% 30.07 in 10.0 mi NE 9.2 mph - N/A   Mostly Cloudy
3:53 AM 79.0 °F - 66.9 °F 66% 30.06 in 10.0 mi NE 11.5 mph - N/A   Mostly Cloudy
4:53 AM 79.0 °F - 66.9 °F 66% 30.06 in 10.0 mi NE 11.5 mph - N/A   Mostly Cloudy
5:53 AM 79.0 °F - 68.0 °F 69% 30.07 in 10.0 mi NE 11.5 mph - N/A   Mostly Cloudy
6:53 AM 79.0 °F - 68.0 °F 69% 30.10 in 10.0 mi NE 13.8 mph - N/A   Overcast
7:53 AM 79.0 °F - 66.9 °F 66% 30.11 in 10.0 mi NE 16.1 mph - 0.00 in   Overcast
8:53 AM 79.0 °F - 68.0 °F 69% 30.12 in 10.0 mi NE 15.0 mph - N/A   Overcast
9:53 AM 80.1 °F 82.7 °F 68.0 °F 67% 30.14 in 10.0 mi NE 15.0 mph - N/A   Overcast
10:53 AM 82.0 °F 84.9 °F 68.0 °F 62% 30.14 in 10.0 mi NE 12.7 mph 25.3 mph N/A   Mostly Cloudy
11:53 AM 82.0 °F 84.9 °F 68.0 °F 62% 30.15 in 10.0 mi ENE 20.7 mph 25.3 mph N/A   Mostly Cloudy
12:53 PM 82.0 °F 84.9 °F 68.0 °F 62% 30.14 in 10.0 mi ENE 16.1 mph - N/A   Mostly Cloudy
1:53 PM 82.0 °F 84.9 °F 68.0 °F 62% 30.13 in 10.0 mi ENE 13.8 mph - N/A   Mostly Cloudy
2:53 PM 84.0 °F 87.0 °F 68.0 °F 58% 30.12 in 10.0 mi ENE 15.0 mph 24.2 mph N/A   Mostly Cloudy
3:53 PM 84.0 °F 87.0 °F 68.0 °F 58% 30.11 in 10.0 mi NNE 19.6 mph 24.2 mph N/A   Scattered Clouds
4:53 PM 82.9 °F 85.4 °F 66.9 °F 58% 30.11 in 10.0 mi NE 17.3 mph - N/A   Mostly Cloudy
5:53 PM 82.0 °F 84.5 °F 66.9 °F 60% 30.12 in 10.0 mi ENE 16.1 mph - N/A   Scattered Clouds
6:53 PM 81.0 °F 82.7 °F 64.9 °F 58% 30.12 in 10.0 mi NE 16.1 mph - N/A   Scattered Clouds
7:53 PM 79.0 °F - 66.0 °F 64% 30.12 in 10.0 mi NE 13.8 mph - N/A   Scattered Clouds
8:53 PM 79.0 °F - 66.0 °F 64% 30.14 in 10.0 mi NE 10.4 mph - N/A   Clear
9:53 PM 78.1 °F - 66.0 °F 66% 30.15 in 10.0 mi NE 10.4 mph - N/A   Clear
10:53 PM 78.1 °F - 66.0 °F 66% 30.15 in 10.0 mi NE 6.9 mph - N/A   Clear
11:53 PM 78.1 °F - 66.0 °F 66% 30.14 in 10.0 mi NE 5.8 mph - N/A   Clear